User: anonymous   Login
Location: Unspecified
(0.0000°N, 0.0000°E)
Time: 00:07:11
(UTC+00:00)
Language:

TELEOS 1 - Orbit

View from above orbital plane
View from above orbital plane
View from above satellite
View from above satellite

Ground track
Ground track

The orbit data is extracted from the following two-line orbital elements,

1 41169U 15077D   18112.26324297  .00001244  00000-0  34965-4 0  9991
2 41169  14.9751  87.5681 0010726 306.6845 173.6456 15.09833556129732
Epoch (UTC): 22 April 2018 06:19:04
Eccentricity: 0.0010726
inclination: 14.9751°
perigee height: 529 km
apogee height: 544 km
right ascension of ascending node: 87.5681°
argument of perigee: 306.6845°
revolutions per day: 15.09833556
mean anomaly at epoch: 173.6456°
orbit number at epoch: 12973

The dashed part of the orbit path shows where the satellite is in the earth's shadow,  

DLR